Regional Weather Roundup
Issued by NWS

Home | Current Version | Previous Version | Graphics & Text | Print | Product List | Glossary Off
Versions: 1 2 3 4 5 6 7 8 9 10 11 12 13 14 15 16 17 18 19 20 21 22 23 24 25 26 27 28 29 30 31 32 33 34 35 36 37 38 39 40 41 42 43 44 45 46 47 48 49 50

000
ASUS43 KTOP 220108
RWRKS

WEATHER ROUNDUP FOR KANSAS
NATIONAL WEATHER SERVICE GOODLAND KS
800 PM CDT SUN SEP 21 2014

NOTE:  "FAIR" INDICATES FEW OR NO CLOUDS BELOW 12,000 FEET WITH NO
SIGNIFICANT WEATHER AND/OR OBSTRUCTIONS TO VISIBILITY.

KSZ001>006-013>018-027>032-041>047-220200-
NORTHWEST KANSAS

CITY           SKY/WX    TMP DP  RH WIND       PRES   REMARKS
GOODLAND       MOCLDY    63  45  51 SE8       30.29S
HAYS           CLEAR     66  39  37 NE8       30.25R
HILL CITY      CLEAR     65  41  41 NE7       30.26R
RUSSELL        CLEAR     67  41  38 NE5       30.23R
$$

KSZ061>065-074>080-084>089-220200-
SOUTHWEST KANSAS

CITY           SKY/WX    TMP DP  RH WIND       PRES   REMARKS
DODGE CITY     PTCLDY    68  41  37 E6        30.25R
ELKHART          N/A     71  45  39 E9          N/A
GARDEN CITY    PTCLDY    70  42  36 NE10      30.25S
GREAT BEND     CLEAR     70  45  40 E5        30.24R
LIBERAL        CLEAR     75  43  31 E9        30.25R
PRATT          PTCLDY    70  37  30 NE6       30.24R
$$

KSZ066>073-081>083-090>101-220200-
SOUTHEAST KANSAS

CITY           SKY/WX    TMP DP  RH WIND       PRES   REMARKS
CHANUTE        CLEAR     67  50  54 N5        30.17R
HUTCHINSON     CLEAR     67  45  45 NE3       30.22R
MEDICINE LODGE   N/A     73  43  33 NE9       30.21R
NEWTON         CLEAR     64  46  52 N3        30.23S
PARSONS        CLEAR     66  53  63 N5        30.18R
WICHITA INTL   PTCLDY    74  40  29 N6        30.20R
WICHITA JABRA  CLEAR     68  42  38 N6        30.20R
WICHITA MCCONL CLEAR     68  41  37 N6        30.20R
WINFIELD       CLEAR     70  48  45 NE6       30.19R
$$

KSZ007>012-019>026-033>040-048>060-102>105-220200-
NORTHEAST KANSAS

CITY           SKY/WX    TMP DP  RH WIND       PRES   REMARKS
CONCORDIA      CLEAR     65  46  50 NE3       30.23R
EMPORIA        CLEAR     65  49  56 N6        30.20R
LAWRENCE       CLEAR     60  50  69 N6        30.20R
MANHATTAN      CLEAR     64  47  53 N3        30.21R
MARYSVILLE     CLEAR     63  46  55 NE6       30.22R
OLATHE IND     CLEAR     59  50  72 N8        30.20R
OLATHE EXE     CLEAR     67  47  48 N6        30.18R
SALINA         CLEAR     69  47  45 N6        30.22R
TOPEKA BILLARD CLEAR     65  50  58 NW3       30.20R
TOPEKA FORBES  CLEAR     65  47  52 N6        30.20R
$$



USA.gov is the U.S. government's official web portal to all federal, state and local government web resources and services.